Regional Weather Roundup
Issued by NWS Burlington, VT

Home | Current Version | Previous Version | Text Only | Print | Product List | Glossary On
Versions: 1 2 3 4 5 6 7 8 9 10 11 12 13 14 15 16 17 18 19 20 21 22 23 24 25 26 27 28 29 30 31 32 33 34 35 36 37 38 39 40 41 42 43 44 45 46 47 48 49 50
000
ASUS41 KBTV 041130
RWRBTV
VERMONT REGIONAL WEATHER ROUNDUP
NATIONAL WEATHER SERVICE BURLINGTON VT
700 AM EDT WED MAY 04 2016

NOTE: "FAIR" INDICATES FEW OR NO CLOUDS BELOW 12,000 FEET WITH NO
SIGNIFICANT WEATHER AND/OR OBSTRUCTIONS TO VISIBILITY.

* THESE REPORTS ARE NOT UNDER NWS QUALITY CONTROL AND/OR DO NOT
  REPORT WEATHER SUCH AS PRECIPITATION AND FOG.

VTZ001>019-041200-
_____VERMONT_____


CITY           SKY/WX    TMP DP  RH WIND       PRES   REMARKS
BURLINGTON     PTSUNNY   44  39  82 CALM      29.81S
MONTPELIER     CLOUDY    40  38  93 CALM      29.87S
MORRISVILLE    CLOUDY    37  36  96 CALM      29.85R
ST. JOHNSBURY*   N/A     40  37  89 MISG      29.85R
LYNDONVILLE*   CLOUDY    39  38  97 CALM      29.87R
MIDDLEBURY*    CLOUDY    46  46 100 S5        29.82S
RUTLAND*       CLOUDY    47  42  83 SE12      29.83S
SPRINGFIELD    CLOUDY    45  42  89 CALM      29.86R
HIGHGATE*      CLOUDY    42  38  84 E6        29.82S
NEWPORT*       CLOUDY    37  37  98 CALM      29.86R
BENNINGTON     CLOUDY    49  43  80 SE5       29.81R
MT. MANSFIELD*   N/A     34 N/A N/A W14         N/A  WCI  24

_____LAKE CHAMPLAIN_____


CITY           SKY/WX    TMP DP  RH WIND       PRES   REMARKS
COLCHESTER RF*   N/A     41  41 100 NW5         N/A
DIAMOND ISL*     N/A     43  43 100 NE1         N/A

$$

NYZ007-026>031-035-052-083-087-041200-
_____NORTHERN NEW YORK_____


CITY           SKY/WX    TMP DP  RH WIND       PRES   REMARKS
SARANAC LAKE   CLOUDY    41  38  89 N3        29.77R
MASSENA        CLOUDY    44  37  76 E9        29.81R
OGDENSBURG*    MOSUNNY   46  39  76 E5        29.78S
POTSDAM*       DRIZZLE   43  41  93 E6        29.79
WATERTOWN      CLOUDY    48  44  86 E3        29.76R
FT DRUM        CLOUDY    49  44  83 SE7       29.75S
ALBANY         CLOUDY    49  47  93 E3        29.81R
GLENS FALLS    CLOUDY    46  43  89 NE3       29.82S FOG

$$
NHZ002-005-011-041200-
_____NEW HAMPSHIRE_____


CITY           SKY/WX    TMP DP  RH WIND       PRES   REMARKS
LEBANON        CLOUDY    46  42  86 CALM      29.86S
KEENE          CLOUDY    46  45  93 CALM      29.87R
MT WASHINGTON  FOG       27  27 100 SE8         N/A  VSB 0   WCI  18
PLYMOUTH       CLOUDY    45  44  97 CALM      29.88R
WHITEFIELD     PTSUNNY   39  35  86 S3        29.86R

$$

_____REGIONAL QUEBEC LOCATIONS_____


CITY           SKY/WX    TMP DP  RH WIND       PRES   REMARKS
MONTREAL       PTSUNNY   43  37  81 NE15      29.82S
QUEBEC CITY    CLOUDY    41  37  87 NE10      29.93R
SHERBROOKE     CLOUDY    41  39  93 NE7       29.85S

_____REGIONAL ONTARIO LOCATIONS_____


CITY           SKY/WX    TMP DP  RH WIND       PRES   REMARKS
OTTAWA         PTSUNNY   41  37  87 E10       29.80S

______KEY______
VSB  - VISIBILITY IN MILES
WCI  - WIND CHILL INDEX
HX   - HEAT INDEX
$$
NNNN




USA.gov is the U.S. government's official web portal to all federal, state and local government web resources and services.